[[{"header":{"parameterUnit":"m.s-1","parameterCategory":1,"la1":30.2991,"la2":30.254,"lo1":-89.0895,"lo2":-89.0444,"dy":0.0017,"dx":0.0017,"nx":28,"ny":28,"refTime":"2024-06-12T21:00:00:Z","depth":0,"parameterNumber":2,"parameterNumberName":"U-component_of_WINDS"},"data":[0,0,0,0,0,0,0,0,0,0,0,0,0,0,0,0,0,0,0,0,0,0,0,0,0,0,0,0,0,0,0,0,0,0,0,0,0,0,0,0,0,0,0,0,0,0,0,0,0,0,0,0,0,0,0,0,0,0,2.3819,2.382,0,2.3904,2.3905,2.3906,2.3894,2.3892,2.3891,2.389,2.3975,2.3979,2.3982,0,0,0,0,0,0,0,0,0,0,0,0,0,2.3642,2.3645,2.3818,2.382,2.3821,2.3904,2.3905,2.3906,2.3894,2.3892,2.3891,2.3889,2.3974,2.3978,2.3983,0,0,0,0,0,0,0,0,0,0,0,0,0,2.3722,2.3647,2.3818,2.3825,2.3826,2.3904,2.3905,2.3906,2.3894,2.3892,2.389,2.3888,2.3973,2.3978,2.3983,2.4059,0,0,2.4,2.4002,0,0,0,0,0,0,0,0,2.3718,2.3729,2.3823,2.3824,2.3826,2.3886,2.3874,2.3958,2.3895,2.3869,2.389,2.3887,2.3947,2.3955,2.3975,2.4063,2.4067,2.4,2.4004,2.4006,2.4008,0,0,0,0,0,0,0,2.3712,2.3725,2.3852,2.3824,2.3826,2.3822,2.3831,2.389,2.3919,2.3871,2.387,2.388,2.3948,2.397,2.3977,2.4068,2.4,2.4005,2.4008,2.401,2.422,2.4223,0,0,0,0,0,0,2.3705,2.372,2.385,2.3855,2.3766,2.3827,2.3837,2.3869,2.3918,2.3924,2.3882,2.3879,2.3962,2.3971,2.398,2.4071,2.4006,2.4011,2.4014,2.4218,2.4221,2.4223,0,0,0,0,0,0,2.3701,2.3717,2.3846,2.3787,2.3804,2.3833,2.3868,2.3872,2.3894,2.3927,2.3932,2.39,2.3961,2.3973,2.4039,2.4074,2.4013,2.4018,2.4215,2.4219,2.4222,2.4253,0,0,0,0,0,0,2.3696,2.3716,2.3746,2.3788,2.3807,2.3905,2.387,2.3875,2.3904,2.3901,2.3945,2.395,2.396,2.4031,2.4045,2.408,2.4023,2.4212,2.4217,2.4221,2.425,2.4258,2.4265,0,0,0,0,0,2.369,2.3751,2.3747,2.3763,2.3845,2.3907,2.3917,2.3928,2.3907,2.3936,2.3957,2.3948,2.4068,2.4038,2.4053,2.4091,2.421,2.4216,2.4221,2.4246,2.4256,2.4264,0,0,0,0,0,0,2.3712,2.3757,2.3753,2.383,2.3865,2.3905,2.3943,2.3939,2.398,2.3976,2.3987,2.3997,2.4064,2.4084,2.405,2.4165,2.4136,2.4144,2.415,2.416,2.4167,2.416,2.4027,0,0,0,0,0,2.3725,2.3773,2.3809,2.3873,2.3891,2.3914,2.3941,2.3947,2.3983,2.3997,2.4023,2.4058,2.4103,2.4133,2.4176,2.4252,2.4261,2.4285,2.4293,2.4299,2.4306,2.4345,2.4356,2.4241,2.4241,2.4241,0,0,2.3754,2.3785,2.3814,2.3878,2.3906,2.3953,2.3926,2.3978,2.4013,2.4005,2.4069,2.4089,2.4129,2.42,2.4233,2.4219,2.4339,2.4306,2.431,2.4314,2.4352,2.4363,2.4373,2.4244,2.4244,2.4243,0,0,2.3831,2.3859,2.3915,2.3943,2.3985,2.3999,2.4012,2.4053,2.4066,2.4131,2.4125,2.4166,2.4245,2.4272,2.4297,2.4382,2.4374,2.4395,2.4434,2.4473,2.4482,2.449,2.4519,2.4529,2.4402,2.4402,2.4402,0,2.3861,2.3933,2.3944,2.3996,2.4024,2.4018,2.4074,2.41,2.4154,2.4173,2.4157,2.4253,2.428,2.4356,2.4377,2.4397,2.4412,2.439,2.448,2.4488,2.4496,2.4523,2.4534,2.4405,2.4404,2.4404,2.4404,0,2.3967,2.4017,2.4057,2.4109,2.4141,2.4195,2.4212,2.4243,2.4245,2.4261,2.4326,2.4357,2.4406,2.4425,2.4428,2.4502,2.4491,2.4478,2.4448,2.4509,2.4535,2.4545,2.4408,2.4407,2.4406,2.4406,0,0,2.406,2.4117,2.4131,2.4153,2.4199,2.4237,2.4289,2.4337,2.4363,2.44,2.4443,2.4508,2.4495,2.4523,2.4528,2.4562,2.4625,2.4544,2.4545,2.4557,2.4706,2.4716,2.4728,2.4621,2.4623,2.4625,2.4702,0,2.414,2.4233,2.4244,2.4326,2.4371,2.4366,2.4412,2.4443,2.4459,2.4499,2.4516,2.4561,2.4542,2.4558,2.4592,2.4611,2.4655,2.4605,2.466,2.4662,2.4649,2.4741,2.4752,2.4824,2.4713,2.4715,2.4716,0,2.4246,2.4285,2.4373,2.441,2.4429,2.447,2.4513,2.4552,2.4587,2.4596,2.4626,2.4626,2.4679,2.4647,2.4719,2.4684,2.4707,2.472,2.4723,2.4727,2.4692,2.4747,2.4847,2.4857,2.4732,2.4731,2.473,0,2.4303,2.4378,2.444,2.4459,2.4504,2.4533,2.4553,2.4586,2.4613,2.4651,2.4669,2.4712,2.4736,2.4769,2.478,2.4757,2.485,2.482,2.4858,2.4857,2.4877,2.4876,2.4981,2.4894,2.4894,2.4894,2.4893,0,2.4391,2.4444,2.4466,2.4503,2.4562,2.4572,2.463,2.4648,2.4678,2.4718,2.4716,2.4753,2.4767,2.4806,2.4816,2.4872,2.4883,2.489,2.4892,2.489,2.4889,2.4904,2.4899,2.4897,2.4896,2.4895,2.4895,0,2.4465,2.4482,2.4548,2.4585,2.4595,2.4636,2.4667,2.4703,2.4717,2.4768,2.478,2.4803,2.4849,2.4864,2.492,2.4926,2.4991,2.4989,2.4979,2.4979,2.5015,2.5011,2.5133,2.5148,2.5053,2.5054,2.5054,0,2.4519,2.456,2.46,2.4627,2.4648,2.4691,2.4719,2.473,2.4759,2.4801,2.4831,2.4876,2.4913,2.4986,2.5007,2.5049,2.5047,2.5087,2.5053,2.5049,2.5046,2.5043,2.5046,2.5093,2.5094,2.5095,2.5095,0,2.4613,2.4619,2.4659,2.4702,2.4735,2.4769,2.4802,2.4824,2.484,2.4872,2.4918,2.4947,2.5003,2.5047,2.509,2.5109,2.5104,2.5106,2.5116,2.5114,2.5106,2.5109,2.4995,2.5103,2.5102,2.5102,2.5101,2.5101,2.4678,2.4713,2.4746,2.4791,2.4816,2.4847,2.4881,2.49,2.4939,2.4986,2.499,2.504,2.5072,2.5128,2.5149,2.5187,2.5176,2.5192,2.5195,2.5199,2.5201,2.5101,2.5195,2.5195,2.5195,2.5195,2.5195,0,2.477,2.4791,2.4832,2.4877,2.4912,2.4905,2.494,2.4969,2.5013,2.5044,2.5079,2.5132,2.5175,2.5198,2.524,2.5266,2.5265,2.5277,2.5274,2.5278,2.521,2.5195,2.5277,2.5277,2.5277,2.5277,2.5277,2.5277,2.4822,2.4881,2.489,2.496,2.498,2.5029,2.505,2.5077,2.5101,2.516,2.5195,2.521,2.5238,2.5281,2.5319,2.5325,2.534,2.5353,2.5357,2.5292,2.5283,2.5275,2.5262,2.5356,2.5356,2.5422,2.5423,2.5423]},{"header":{"parameterUnit":"m.s-1","parameterCategory":1,"la1":30.2991,"la2":30.254,"lo1":-89.0895,"lo2":-89.0444,"dy":0.0017,"dx":0.0017,"nx":28,"ny":28,"refTime":"2024-06-12T21:00:00:Z","depth":0,"parameterNumber":3,"parameterNumberName":"V-component_of_WINDS"},"data":[0,0,0,0,0,0,0,0,0,0,0,0,0,0,0,0,0,0,0,0,0,0,0,0,0,0,0,0,0,0,0,0,0,0,0,0,0,0,0,0,0,0,0,0,0,0,0,0,0,0,0,0,0,0,0,0,0,0,-0.2374,-0.2375,0,-0.2413,-0.2414,-0.2414,-0.2456,-0.2456,-0.2457,-0.2457,-0.2497,-0.2497,-0.2498,0,0,0,0,0,0,0,0,0,0,0,0,0,-0.2337,-0.2337,-0.2374,-0.2375,-0.2375,-0.2413,-0.2414,-0.2414,-0.2456,-0.2456,-0.2457,-0.2458,-0.2497,-0.2497,-0.2498,0,0,0,0,0,0,0,0,0,0,0,0,0,-0.2362,-0.2337,-0.2374,-0.2401,-0.2403,-0.2413,-0.2414,-0.2414,-0.2455,-0.2456,-0.2457,-0.2458,-0.2497,-0.2497,-0.2498,-0.2485,0,0,-0.25,-0.2501,0,0,0,0,0,0,0,0,-0.2361,-0.2363,-0.2396,-0.2399,-0.2402,-0.2431,-0.2415,-0.2438,-0.2455,-0.2436,-0.2457,-0.2458,-0.2474,-0.2477,-0.2482,-0.2487,-0.2489,-0.25,-0.2501,-0.2501,-0.2501,0,0,0,0,0,0,0,-0.2359,-0.2362,-0.239,-0.2397,-0.24,-0.2411,-0.2415,-0.242,-0.2449,-0.2437,-0.244,-0.2445,-0.2476,-0.2481,-0.2483,-0.2489,-0.25,-0.2501,-0.2502,-0.2502,-0.2486,-0.2486,0,0,0,0,0,0,-0.2353,-0.236,-0.2389,-0.2391,-0.2383,-0.2411,-0.2416,-0.242,-0.2449,-0.2455,-0.2444,-0.2446,-0.248,-0.2482,-0.2485,-0.2472,-0.2501,-0.2502,-0.2502,-0.2487,-0.2486,-0.2485,0,0,0,0,0,0,-0.2352,-0.2355,-0.2387,-0.2376,-0.2381,-0.241,-0.2415,-0.2421,-0.2426,-0.2454,-0.246,-0.2444,-0.248,-0.2484,-0.2485,-0.2474,-0.2502,-0.2503,-0.2488,-0.2487,-0.2486,-0.2445,0,0,0,0,0,0,-0.2351,-0.2355,-0.235,-0.2376,-0.2382,-0.2386,-0.2415,-0.2421,-0.2427,-0.2431,-0.2456,-0.2461,-0.2481,-0.2484,-0.2486,-0.2475,-0.2504,-0.2489,-0.2488,-0.2486,-0.2448,-0.2443,-0.2439,0,0,0,0,0,-0.2349,-0.2336,-0.2349,-0.2352,-0.2376,-0.2385,-0.2388,-0.2412,-0.2426,-0.2422,-0.244,-0.246,-0.2475,-0.2483,-0.2486,-0.2476,-0.249,-0.2488,-0.2486,-0.245,-0.2444,-0.2439,0,0,0,0,0,0,-0.2307,-0.234,-0.2355,-0.235,-0.2364,-0.2392,-0.2387,-0.2405,-0.2416,-0.2419,-0.2448,-0.2454,-0.2451,-0.2464,-0.2473,-0.2465,-0.2485,-0.2484,-0.2457,-0.2451,-0.2447,-0.2444,-0.2504,0,0,0,0,0,-0.2298,-0.2302,-0.2331,-0.2324,-0.2331,-0.2357,-0.2362,-0.238,-0.2396,-0.2402,-0.2421,-0.2436,-0.2444,-0.2449,-0.2458,-0.245,-0.2457,-0.2445,-0.244,-0.2436,-0.2434,-0.2432,-0.2427,-0.2479,-0.2479,-0.2479,0,0,-0.2277,-0.2296,-0.2297,-0.2316,-0.2329,-0.2334,-0.2362,-0.2365,-0.2369,-0.2403,-0.2405,-0.2419,-0.2438,-0.2435,-0.2434,-0.2445,-0.2422,-0.2434,-0.2431,-0.2431,-0.243,-0.2425,-0.242,-0.2478,-0.2478,-0.2478,0,0,-0.2243,-0.2257,-0.2253,-0.2266,-0.2286,-0.2305,-0.2304,-0.2329,-0.234,-0.2342,-0.2368,-0.2373,-0.2386,-0.2399,-0.2407,-0.2379,-0.2398,-0.2381,-0.2357,-0.2354,-0.235,-0.2347,-0.2336,-0.2333,-0.2379,-0.2379,-0.2379,0,-0.2215,-0.2222,-0.2249,-0.2251,-0.2258,-0.229,-0.2287,-0.2298,-0.232,-0.2324,-0.2337,-0.2355,-0.237,-0.237,-0.2363,-0.2369,-0.2369,-0.2378,-0.2349,-0.2345,-0.2342,-0.2333,-0.2329,-0.2377,-0.2377,-0.2377,-0.2378,0,-0.2187,-0.2192,-0.2186,-0.2207,-0.2214,-0.2213,-0.224,-0.2245,-0.2262,-0.2279,-0.2282,-0.2301,-0.2315,-0.2317,-0.2334,-0.232,-0.2326,-0.2343,-0.2364,-0.2335,-0.2327,-0.2323,-0.2374,-0.2375,-0.2375,-0.2376,0,0,-0.2126,-0.2162,-0.2159,-0.217,-0.2195,-0.2199,-0.22,-0.2214,-0.2217,-0.2232,-0.2233,-0.2245,-0.2261,-0.227,-0.2289,-0.2286,-0.2263,-0.2304,-0.2305,-0.2295,-0.225,-0.2237,-0.2232,-0.2276,-0.2276,-0.2275,-0.2248,0,-0.2095,-0.2098,-0.2123,-0.2119,-0.2124,-0.2155,-0.2156,-0.2172,-0.2188,-0.2195,-0.2214,-0.2221,-0.2242,-0.2247,-0.2247,-0.2266,-0.2254,-0.2268,-0.2278,-0.2278,-0.2271,-0.2228,-0.2214,-0.2187,-0.2245,-0.2245,-0.2244,0,-0.2059,-0.2072,-0.2068,-0.2094,-0.2097,-0.2098,-0.2113,-0.2119,-0.2138,-0.215,-0.2161,-0.2183,-0.2186,-0.2206,-0.2211,-0.222,-0.2226,-0.2236,-0.2236,-0.2237,-0.2259,-0.2227,-0.2179,-0.2175,-0.2239,-0.224,-0.224,0,-0.2014,-0.2031,-0.2031,-0.2039,-0.2069,-0.2069,-0.2081,-0.2101,-0.2108,-0.2122,-0.2127,-0.214,-0.2148,-0.2158,-0.2183,-0.2195,-0.2185,-0.2208,-0.2196,-0.2195,-0.2191,-0.2191,-0.2143,-0.2196,-0.2196,-0.2196,-0.2196,0,-0.1977,-0.1973,-0.2011,-0.2011,-0.2009,-0.2038,-0.2035,-0.2051,-0.2068,-0.2072,-0.21,-0.2104,-0.2136,-0.2144,-0.2163,-0.2165,-0.2168,-0.2178,-0.2183,-0.2175,-0.2174,-0.2178,-0.2181,-0.2195,-0.2195,-0.2195,-0.2196,0,-0.1926,-0.1951,-0.1953,-0.1982,-0.199,-0.1986,-0.2011,-0.2013,-0.2032,-0.2037,-0.204,-0.2069,-0.2079,-0.2105,-0.2122,-0.2135,-0.2131,-0.2141,-0.2125,-0.2128,-0.2114,-0.2115,-0.2067,-0.2062,-0.2118,-0.2118,-0.2117,0,-0.19,-0.1898,-0.1927,-0.1932,-0.1943,-0.1951,-0.1958,-0.1987,-0.1994,-0.2016,-0.2015,-0.2028,-0.2039,-0.2054,-0.2077,-0.209,-0.21,-0.2083,-0.2102,-0.2095,-0.21,-0.2099,-0.2099,-0.2078,-0.2077,-0.2076,-0.2076,0,-0.1851,-0.1864,-0.1874,-0.1888,-0.1896,-0.1909,-0.1923,-0.1926,-0.1959,-0.1965,-0.1976,-0.1985,-0.2002,-0.2014,-0.2031,-0.2045,-0.2066,-0.207,-0.2068,-0.2059,-0.205,-0.2054,-0.2112,-0.207,-0.2071,-0.2071,-0.2072,-0.2072,-0.1812,-0.1812,-0.1832,-0.1843,-0.1857,-0.187,-0.1873,-0.1892,-0.1902,-0.1918,-0.1935,-0.1944,-0.1965,-0.199,-0.2002,-0.201,-0.2021,-0.2018,-0.2017,-0.2015,-0.2012,-0.2049,-0.2013,-0.2013,-0.2014,-0.2014,-0.2014,0,-0.1764,-0.1779,-0.1789,-0.1808,-0.1816,-0.1836,-0.1853,-0.1859,-0.1866,-0.1883,-0.1894,-0.1907,-0.1919,-0.1944,-0.1958,-0.196,-0.197,-0.1963,-0.1962,-0.1965,-0.2001,-0.2002,-0.1954,-0.1954,-0.1954,-0.1954,-0.1954,-0.1954,-0.174,-0.1742,-0.1757,-0.1766,-0.1782,-0.1791,-0.1799,-0.1811,-0.1825,-0.1838,-0.1849,-0.1865,-0.1885,-0.1902,-0.1914,-0.1921,-0.1925,-0.1914,-0.1924,-0.1957,-0.1963,-0.1968,-0.1968,-0.1915,-0.1915,-0.1888,-0.1887,-0.1887]}]]